{"data":{"norad_id":57736,"intl_designator":"2023-131E","name":"STARLINK-30352","alt_names":[],"object_type":"PAYLOAD","status":"ACTIVE","operator":null,"country":"US","launch_date":"2023-09-01","launch_site_code":"AFETR","launch_vehicle":null,"mission":null,"orbit_class":"UNKNOWN","rcs_meters":null,"size_class":null,"mass_kg":null,"dimensions":null,"purposes":["comms"],"wikipedia_slug":null,"has_3d_model":false,"image_url":null,"decayed_at":null,"tle_current":{"epoch":"2026-05-24T22:55:11.885952Z","epoch_age_seconds":93017,"freshness":"FRESH","line1":"1 57736U 23131E   26144.95499868  .00000246  00000+0  18862-4 0  9993","line2":"2 57736  43.0059 109.1175 0001176 272.5313  87.5404 15.26741205151494","mean_motion":15.26741205,"eccentricity":0.0001176,"inclination_deg":43.0059,"raan_deg":109.1175,"arg_perigee_deg":272.5313,"mean_anomaly_deg":87.5404,"bstar":1.8862e-5,"rev_number":15149,"period_min":94.318539074211,"perigee_km":484.75472888732,"apogee_km":486.36907086857,"semimajor_km":6863.6988998779,"source":"CELESTRAK","updated_at":"2026-05-25T13:38:18.398194Z"}}}